Weather History for KCCY - September, 2013

Change the Weather History Date:

Wednesday, September 25, 2013

  Actual Average Record
Temperature  
Mean Temperature 60 °F -  
Max Temperature 73 °F 70 °F 87 °F (1956)
Min Temperature 48 °F 44 °F 29 °F (1984)
Degree Days  
Heating Degree Days 4    
Growing Degree Days 10 (Base 50)    
Moisture  
Dew Point 50 °F    
Average Humidity 72    
Maximum Humidity 94    
Minimum Humidity 46    
Precipitation  
Precipitation 0.00 in - - ()
Sea Level Pressure  
Sea Level Pressure 29.95 in    
Wind  
Wind Speed 7 mph (East)    
Max Wind Speed 13 mph    
Max Gust Speed 17 mph    
Visibility 9 miles    
Events      
Averages and records for this station are not official NWS values.
T = Trace of Precipitation, MM = Missing Value Source: NWS Daily Summary

Daily Weather History Graph

Daily Weather History Graph

Search for Another Location

Airport or City:

Trip Planner

Search our weather history database for the weather conditions in past years. The results will help you decide how hot, cold, wet, or windy it might be!

Date:

Astronomy

Sep. 25, 2013 Rise Set
Actual Time 7:01 AM CDT 7:01 PM CDT
Civil Twilight 6:33 AM CDT 7:30 PM CDT
Nautical Twilight 5:59 AM CDT 8:03 PM CDT
Astronomical Twilight 5:26 AM CDT 8:36 PM CDT
Moon 11:00 PM CDT 1:15 PM CDT
Length of Visible Light 12h 57m
Length of Day
12h 00m
Waning Gibbous, 64% of the Moon is Illuminated
Sep 25
Waning Gibbous
Sep 26
Last Quarter
Oct 4
New
Oct 11
First Quarter
Oct 18
Full

Hourly Weather History & Observations

Time (CDT) Temp. Dew Point Humidity Pressure Visibility Wind Dir Wind Speed Gust Speed Precip Events Conditions
12:15 AM 53.6 °F 50.0 °F 88% 29.95 in 10.0 mi NE 5.8 mph - N/A   Clear
12:35 AM 53.6 °F 48.2 °F 82% 29.95 in 10.0 mi NE 5.8 mph - N/A   Clear
12:55 AM 51.8 °F 48.2 °F 88% 29.96 in 10.0 mi ENE 4.6 mph - N/A   Clear
1:15 AM 51.8 °F 48.2 °F 88% 29.96 in 10.0 mi ENE 5.8 mph - N/A   Clear
1:35 AM 51.8 °F 48.2 °F 88% 29.96 in 10.0 mi ENE 4.6 mph - N/A   Clear
1:55 AM 51.8 °F 48.2 °F 88% 29.96 in 10.0 mi East 4.6 mph - N/A   Clear
2:15 AM 51.8 °F 48.2 °F 88% 29.96 in 10.0 mi East 5.8 mph - N/A   Clear
2:35 AM 51.8 °F 48.2 °F 88% 29.96 in 10.0 mi East 5.8 mph - N/A   Clear
2:55 AM 51.8 °F 48.2 °F 88% 29.96 in 10.0 mi ENE 4.6 mph - N/A   Clear
3:15 AM 51.8 °F 48.2 °F 88% 29.96 in 10.0 mi East 5.8 mph - N/A   Clear
3:35 AM 50.0 °F 48.2 °F 94% 29.96 in 10.0 mi East 6.9 mph - N/A   Clear
3:55 AM 50.0 °F 48.2 °F 94% 29.97 in 9.0 mi East 6.9 mph - N/A   Clear
4:15 AM 50.0 °F 48.2 °F 94% 29.97 in 10.0 mi East 5.8 mph - N/A   Clear
4:35 AM 48.2 °F 46.4 °F 93% 29.96 in 8.0 mi East 5.8 mph - N/A   Clear
4:55 AM 50.0 °F 46.4 °F 87% 29.96 in 8.0 mi East 6.9 mph - N/A   Clear
5:15 AM 50.0 °F 48.2 °F 94% 29.96 in 9.0 mi ENE 4.6 mph - N/A   Clear
5:35 AM 48.2 °F 46.4 °F 93% 29.96 in 7.0 mi ENE 3.5 mph - N/A   Clear
5:55 AM 48.2 °F 46.4 °F 93% 29.97 in 7.0 mi ENE 4.6 mph - N/A   Clear
6:15 AM 48.2 °F 46.4 °F 93% 29.97 in 6.0 mi North - - N/A   Clear
6:35 AM 48.2 °F 46.4 °F 93% 29.97 in 7.0 mi East 4.6 mph - N/A   Clear
6:55 AM 50.0 °F 46.4 °F 87% 29.97 in 7.0 mi ENE 6.9 mph - N/A   Clear
7:15 AM 48.2 °F 46.4 °F 93% 29.98 in 4.0 mi East 8.1 mph - N/A   Clear
7:35 AM 50.0 °F 46.4 °F 87% 29.98 in 5.0 mi ENE 6.9 mph - N/A   Clear
7:55 AM 50.0 °F 48.2 °F 94% 29.98 in 5.0 mi East 6.9 mph - N/A   Clear
8:15 AM 50.0 °F 48.2 °F 94% 29.98 in 5.0 mi East 8.1 mph - N/A   Clear
8:35 AM 51.8 °F 48.2 °F 88% 29.98 in 6.0 mi East 8.1 mph - N/A   Clear
8:55 AM 53.6 °F 50.0 °F 88% 29.99 in 7.0 mi East 5.8 mph - N/A   Clear
9:15 AM 55.4 °F 50.0 °F 82% 30.00 in 9.0 mi East 5.8 mph - N/A   Clear
9:35 AM 57.2 °F 51.8 °F 82% 30.00 in 9.0 mi East 8.1 mph - N/A   Clear
9:55 AM 59.0 °F 51.8 °F 77% 29.99 in 10.0 mi East 10.4 mph - N/A   Clear
10:15 AM 60.8 °F 51.8 °F 72% 29.99 in 10.0 mi East 8.1 mph - N/A   Clear
10:35 AM 62.6 °F 51.8 °F 68% 29.99 in 10.0 mi East 10.4 mph - N/A   Clear
10:55 AM 64.4 °F 51.8 °F 64% 29.99 in 10.0 mi ESE 9.2 mph - N/A   Clear
11:15 AM 66.2 °F 51.8 °F 60% 30.00 in 10.0 mi ESE 9.2 mph - N/A   Clear
11:35 AM 66.2 °F 51.8 °F 60% 29.99 in 10.0 mi East 8.1 mph - N/A   Clear
11:55 AM 68.0 °F 51.8 °F 56% 29.98 in 10.0 mi East 12.7 mph - N/A   Clear
12:15 PM 68.0 °F 51.8 °F 56% 29.98 in 10.0 mi East 10.4 mph - N/A   Clear
12:35 PM 69.8 °F 51.8 °F 53% 29.97 in 10.0 mi SE 8.1 mph 15.0 mph N/A   Clear
12:55 PM 69.8 °F 51.8 °F 53% 29.97 in 10.0 mi SE 5.8 mph 12.7 mph N/A   Clear
1:15 PM 71.6 °F 50.0 °F 46% 29.96 in 10.0 mi East 9.2 mph 17.3 mph N/A   Clear
1:35 PM 71.6 °F 51.8 °F 50% 29.95 in 10.0 mi Variable 5.8 mph - N/A   Clear
1:55 PM 71.6 °F 51.8 °F 50% 29.94 in 10.0 mi ESE 9.2 mph - N/A   Clear
2:15 PM 71.6 °F 51.8 °F 50% 29.93 in 10.0 mi SE 11.5 mph - N/A   Clear
2:35 PM 73.4 °F 51.8 °F 47% 29.93 in 10.0 mi ESE 9.2 mph 15.0 mph N/A   Clear
2:55 PM 73.4 °F 51.8 °F 47% 29.92 in 10.0 mi ESE 8.1 mph - N/A   Clear
3:15 PM 73.4 °F 51.8 °F 47% 29.92 in 10.0 mi SE 8.1 mph - N/A   Clear
3:35 PM 73.4 °F 51.8 °F 47% 29.91 in 10.0 mi SE 9.2 mph - N/A   Clear
3:55 PM 73.4 °F 51.8 °F 47% 29.91 in 10.0 mi SE 9.2 mph - N/A   Clear
4:15 PM 73.4 °F 51.8 °F 47% 29.91 in 10.0 mi ESE 9.2 mph - N/A   Clear
4:35 PM 73.4 °F 51.8 °F 47% 29.91 in 10.0 mi ESE 8.1 mph - N/A   Clear
4:55 PM 73.4 °F 51.8 °F 47% 29.90 in 10.0 mi SSE 9.2 mph - N/A   Clear
5:15 PM 73.4 °F 53.6 °F 50% 29.90 in 10.0 mi SE 9.2 mph 15.0 mph N/A   Clear
5:35 PM 73.4 °F 53.6 °F 50% 29.91 in 10.0 mi ESE 10.4 mph - N/A   Clear
5:55 PM 71.6 °F 53.6 °F 53% 29.90 in 10.0 mi SE 9.2 mph - N/A   Clear
6:15 PM 71.6 °F 53.6 °F 53% 29.90 in 10.0 mi ESE 8.1 mph - N/A   Clear
6:35 PM 69.8 °F 55.4 °F 60% 29.90 in 10.0 mi ESE 5.8 mph - N/A   Clear
6:55 PM 66.2 °F 53.6 °F 64% 29.90 in 10.0 mi ESE 5.8 mph - N/A   Clear
7:15 PM 64.4 °F 53.6 °F 68% 29.90 in 10.0 mi ESE 6.9 mph - N/A   Clear
7:35 PM 64.4 °F 53.6 °F 68% 29.90 in 10.0 mi ESE 8.1 mph - N/A   Clear
7:55 PM 62.6 °F 53.6 °F 72% 29.90 in 10.0 mi ESE 6.9 mph - N/A   Clear
8:15 PM 62.6 °F 51.8 °F 68% 29.90 in 10.0 mi ESE 8.1 mph - N/A   Clear
8:35 PM 60.8 °F 51.8 °F 72% 29.90 in 10.0 mi East 6.9 mph - N/A   Clear
8:55 PM 60.8 °F 51.8 °F 72% 29.90 in 10.0 mi East 8.1 mph - N/A   Clear
9:15 PM 60.8 °F 51.8 °F 72% 29.90 in 10.0 mi ESE 8.1 mph - N/A   Clear
9:35 PM 60.8 °F 51.8 °F 72% 29.91 in 10.0 mi ESE 8.1 mph - N/A   Clear
9:55 PM 60.8 °F 51.8 °F 72% 29.91 in 10.0 mi ESE 9.2 mph - N/A   Clear
10:15 PM 60.8 °F 51.8 °F 72% 29.91 in 10.0 mi ESE 10.4 mph - N/A   Clear
10:35 PM 60.8 °F 50.0 °F 68% 29.91 in 10.0 mi ESE 10.4 mph - N/A   Clear
10:55 PM 60.8 °F 50.0 °F 68% 29.91 in 10.0 mi ESE 9.2 mph - N/A   Clear
11:15 PM 60.8 °F 50.0 °F 68% 29.92 in 10.0 mi ESE 10.4 mph - N/A   Clear
11:35 PM 59.0 °F 50.0 °F 72% 29.93 in 10.0 mi ESE 10.4 mph - N/A   Clear
11:55 PM 59.0 °F 50.0 °F 72% 29.92 in 10.0 mi ESE 11.5 mph - N/A   Clear